Date String (YYYY-MM-DD hh:mm:ss) UTC,Instrument flags,Ambient pressure (hPa),Sample flow (lpm),Bypass flow (lpm),Sample temperature (°C),Ambient temperature (°C),ASC tube jacket temperature (°C),LED temperature (°C),Box temperature (°C),Sample RH (%),Span deviation,Mass concentration (μg/m³),Mass concentration (μg/m³),Mass concentration (μg/m³)
DateTimeUTC,F1_M11,P_M11,Q1_M11,Q2_M11,T1_M11,T2_M11,T3_M11,T4_M11,T5_M11,U1_M11,ZSPAN_M11,X0_M11,X2_M11,X1_M11
2022-07-11 05:00:00,,0829.8,4.99,0.00,28.4,27.0,00.0,37.1,30.4,24.8,0000.0,0011.32,0005.25,0004.51
2022-07-11 05:01:00,,0829.7,5.00,0.00,28.5,27.2,00.0,37.2,30.5,24.9,0000.0,0011.26,0005.23,0004.52
2022-07-11 05:02:00,,0829.7,5.00,0.00,28.5,27.0,00.0,37.1,30.6,24.5,0000.0,0011.70,0005.26,0004.54
2022-07-11 05:03:00,,0829.7,4.99,0.00,28.5,26.3,00.0,37.1,30.4,23.6,0000.0,0011.66,0005.26,0004.54
2022-07-11 05:04:00,,0829.7,5.01,0.00,28.4,26.0,00.0,37.1,30.4,23.4,0000.0,0011.50,0005.17,0004.51
2022-07-11 05:05:00,,0829.7,4.99,0.00,28.4,26.0,00.0,37.1,30.2,23.5,0000.0,0011.36,0005.08,0004.45
2022-07-11 05:06:00,,0829.7,5.02,0.00,28.4,26.2,00.0,37.1,30.2,23.3,0000.0,0011.07,0004.97,0004.41
2022-07-11 05:07:00,,0829.8,5.00,0.00,28.4,26.5,00.0,37.1,30.3,23.7,0000.0,0010.83,0004.90,0004.36
2022-07-11 05:08:00,,0829.8,5.01,0.00,28.4,26.7,00.0,37.1,30.3,24.0,0000.0,0010.13,0004.80,0004.33
2022-07-11 05:09:00,,0829.8,4.99,0.00,28.4,27.0,00.0,37.2,30.4,24.3,0000.0,0009.38,0004.74,0004.29
2022-07-11 05:10:00,,0829.8,5.01,0.00,28.5,27.2,00.0,37.2,30.5,24.3,0000.0,0009.32,0004.70,0004.26
2022-07-11 05:11:00,,0829.8,4.99,0.00,28.5,27.3,00.0,37.2,30.6,24.2,0000.0,0009.24,0004.64,0004.25
2022-07-11 05:12:00,,0829.8,5.00,0.00,28.5,26.8,00.0,37.2,30.5,24.0,0000.0,0009.04,0004.63,0004.25
2022-07-11 05:13:00,,0829.8,5.00,0.00,28.5,26.2,00.0,37.1,30.4,24.0,0000.0,0008.32,0004.63,0004.23
2022-07-11 05:14:00,,0829.8,5.01,0.00,28.4,26.1,00.0,37.1,30.3,23.5,0000.0,0008.40,0004.60,0004.21
2022-07-11 05:15:00,,0829.8,4.99,0.00,28.4,26.2,00.0,37.1,30.2,23.6,0000.0,0008.37,0004.61,0004.20
2022-07-11 05:16:00,,0829.8,5.01,0.00,28.4,26.4,00.0,37.1,30.2,23.6,0000.0,0008.40,0004.60,0004.20
2022-07-11 05:17:00,,0829.8,5.01,0.00,28.4,26.6,00.0,37.2,30.3,23.6,0000.0,0008.42,0004.60,0004.19
2022-07-11 05:18:00,,0829.8,4.98,0.00,28.4,26.8,00.0,37.2,30.4,23.3,0000.0,0008.54,0004.63,0004.19
2022-07-11 05:19:00,,0829.9,5.01,0.00,28.5,27.1,00.0,37.2,30.5,23.2,0000.0,0008.66,0004.65,0004.18
2022-07-11 05:20:00,,0829.9,4.98,0.00,28.5,27.3,00.0,37.2,30.6,23.4,0000.0,0008.37,0004.65,0004.17
2022-07-11 05:21:00,,0829.8,5.01,0.00,28.6,27.4,00.0,37.3,30.6,23.1,0000.0,0008.19,0004.64,0004.17
2022-07-11 05:22:00,,0829.9,5.00,0.00,28.6,27.0,00.0,37.2,30.6,23.0,0000.0,0008.13,0004.60,0004.14
2022-07-11 05:23:00,,0829.8,4.99,0.00,28.5,26.2,00.0,37.2,30.4,23.1,0000.0,0008.10,0004.59,0004.12
2022-07-11 05:24:00,,0829.9,5.00,0.00,28.5,26.1,00.0,37.2,30.4,23.1,0000.0,0007.75,0004.55,0004.10
2022-07-11 05:25:00,,0829.8,4.99,0.00,28.5,26.2,00.0,37.2,30.3,23.0,0000.0,0007.42,0004.53,0004.09
2022-07-11 05:26:00,,0829.8,5.01,0.00,28.4,26.4,00.0,37.2,30.3,23.0,0000.0,0007.15,0004.48,0004.09
2022-07-11 05:27:00,,0829.8,5.00,0.00,28.5,26.6,00.0,37.2,30.3,23.0,0000.0,0007.03,0004.47,0004.09
2022-07-11 05:28:00,,0829.8,5.00,0.00,28.5,26.8,00.0,37.2,30.4,22.9,0000.0,0007.03,0004.49,0004.09
2022-07-11 05:29:00,,0829.8,4.98,0.00,28.5,27.1,00.0,37.2,30.5,22.9,0000.0,0006.82,0004.45,0004.09
2022-07-11 05:30:00,,0829.8,5.01,0.00,28.6,27.3,00.0,37.3,30.6,22.8,0000.0,0006.60,0004.41,0004.08
2022-07-11 05:31:00,,0829.8,5.01,0.00,28.6,27.5,00.0,37.3,30.7,22.8,0000.0,0006.60,0004.40,0004.07
2022-07-11 05:32:00,,0829.8,4.99,0.00,28.7,27.5,00.0,37.3,30.7,22.8,0000.0,0006.49,0004.36,0004.06
2022-07-11 05:33:00,,0829.8,4.99,0.00,28.7,26.9,00.0,37.3,30.7,22.8,0000.0,0007.07,0004.37,0004.05
2022-07-11 05:34:00,,0829.8,5.02,0.00,28.6,26.8,00.0,37.3,30.6,22.8,0000.0,0006.89,0004.34,0004.05
2022-07-11 05:35:00,,0829.8,5.00,0.00,28.6,26.8,00.0,37.3,30.5,22.9,0000.0,0006.92,0004.30,0004.04
2022-07-11 05:36:00,,0829.8,5.00,0.00,28.6,26.9,00.0,37.3,30.5,22.9,0000.0,0006.92,0004.30,0004.03
2022-07-11 05:37:00,,0829.8,5.01,0.00,28.6,27.1,00.0,37.3,30.6,22.9,0000.0,0006.91,0004.31,0004.04
2022-07-11 05:38:00,,0829.8,4.98,0.00,28.7,27.3,00.0,37.4,30.7,22.8,0000.0,0007.02,0004.31,0004.02
2022-07-11 05:39:00,,0829.8,5.01,0.00,28.7,27.5,00.0,37.4,30.7,22.8,0000.0,0007.16,0004.31,0004.02
2022-07-11 05:40:00,,0829.9,4.99,0.00,28.8,27.6,00.0,37.4,30.8,22.8,0000.0,0007.73,0004.31,0004.03
2022-07-11 05:41:00,,0829.8,5.00,0.00,28.8,27.3,00.0,37.4,30.8,22.7,0000.0,0007.92,0004.33,0004.04
2022-07-11 05:42:00,,0829.9,5.01,0.00,28.7,26.6,00.0,37.3,30.7,22.8,0000.0,0007.95,0004.35,0004.05
2022-07-11 05:43:00,,0829.9,5.00,0.00,28.7,26.3,00.0,37.3,30.6,22.8,0000.0,0007.90,0004.37,0004.05
2022-07-11 05:44:00,,0829.8,5.00,0.00,28.6,26.4,00.0,37.3,30.4,22.9,0000.0,0007.64,0004.37,0004.05
2022-07-11 05:45:00,,0829.9,4.99,0.00,28.6,26.5,00.0,37.3,30.4,22.9,0000.0,0007.66,0004.37,0004.06
2022-07-11 05:46:00,,0829.8,5.00,0.00,28.6,26.7,00.0,37.3,30.5,22.9,0000.0,0007.66,0004.41,0004.07
2022-07-11 05:47:00,,0829.8,5.00,0.00,28.6,26.9,00.0,37.4,30.5,22.9,0000.0,0007.67,0004.43,0004.08
2022-07-11 05:48:00,,0829.9,5.01,0.00,28.7,27.1,00.0,37.4,30.6,22.8,0000.0,0007.96,0004.42,0004.07
2022-07-11 05:49:00,,0829.9,5.01,0.00,28.7,27.3,00.0,37.4,30.7,22.7,0000.0,0008.19,0004.41,0004.08
2022-07-11 05:50:00,,0830.1,5.00,0.00,28.7,27.5,00.0,37.4,30.8,22.7,0000.0,0008.14,0004.40,0004.07
2022-07-11 05:51:00,,0830.0,4.98,0.00,28.8,27.7,00.0,37.5,30.8,23.3,0000.0,0007.82,0004.40,0004.07
2022-07-11 05:52:00,,0829.9,5.00,0.00,28.8,27.5,00.0,37.4,30.8,23.3,0000.0,0007.52,0004.41,0004.08
2022-07-11 05:53:00,,0830.0,5.00,0.00,28.8,26.7,00.0,37.4,30.7,23.5,0000.0,0008.47,0004.42,0004.08
2022-07-11 05:54:00,,0829.9,4.99,0.00,28.7,26.3,00.0,37.4,30.6,23.5,0000.0,0008.52,0004.42,0004.09
2022-07-11 05:55:00,,0829.8,5.01,0.00,28.7,26.3,00.0,37.4,30.5,23.5,0000.0,0008.46,0004.42,0004.10
2022-07-11 05:56:00,,0829.9,4.99,0.00,28.6,26.4,00.0,37.4,30.4,23.6,0000.0,0008.72,0004.43,0004.10
2022-07-11 05:57:00,,0829.9,5.01,0.00,28.6,26.6,00.0,37.4,30.4,23.8,0000.0,0008.89,0004.41,0004.09
2022-07-11 05:58:00,,0829.9,5.01,0.00,28.6,26.9,00.0,37.4,30.5,23.8,0000.0,0008.92,0004.39,0004.08
2022-07-11 05:59:00,,0829.9,5.01,0.00,28.7,27.1,00.0,37.4,30.6,23.8,0000.0,0008.90,0004.39,0004.08
